Погода в Лелистаде

Нидерланды     52°30′53″N   5°28′38″E
темп.,
°C
ветер,
м/с
пор.,
м/с
влажн.,
%
обл.,
%
осадки,
мм/ч
давл.,
гПа
погр.,
м
14 апреля, ср
ср1423:00+5сз34675 0.0 1032399
02:00+4ссз23685 0.0 1032471
05:00+3ссз126919 0.0 1031509
08:00+4ссз237046 0.4 1032336
11:00+6с33625 0.3 1032829
14:00+6ссз556116 0.4 1031868
17:00+7ссз88625 0.1 1031848
20:00+6с78677 0.1 1031715
15 апреля, чт
чт1523:00+5с5777100 0.1 1031522
02:00+5с458133 1.1 1030420
05:00+3всв33845 0.2 1030236
08:00+2всв45895 0.2 1031183
11:00+6всв467224 0.1 1032898
14:00+9всв465099 0.4 10321586
17:00+9св464793 0.1 10311125
20:00+7св7965100 0.1 1031630
16 апреля, пт
пт1623:00+4св71175100 0.0 1032433
02:00+4св610757 0.0 1031305
05:00+3св47826 0.0 1031199
08:00+4св46825 0.0 1031256
11:00+8ссв68605 0.0 1031874
14:00+10с676039 0.0 10291003
17:00+10ссв785610 0.0 1028867
20:00+8ссв710655 0.0 1029483
17 апреля, сб
сб1723:00+5св711771 0.0 1029335
02:00+4св59815 0.0 1029233
05:00+3всв57775 0.0 1029197
08:00+3всв58705 0.0 1029236
11:00+8св575849 0.0 1028651
14:00+10с455726 0.0 1027827
17:00+10с566017 0.0 1026753
20:00+9ссв69695 0.0 1026264
18 апреля, вс
вс1823:00+6св47765 0.0 1027178
02:00+5в34855 0.0 102689
05:00+5всв238553 0.0 102673
08:00+6всв3475100 0.0 1026142
11:00+8св2266100 0.0 1027247
14:00+10ссв226588 0.0 1026443
17:00+11ссз436640 0.0 1025593
20:00+9с5779100 0.1 1025143